Content
SEND FEEDBACK

Daily
Averages
Monthly
Summary
United States of America

HAMILTON CITY, CALIFORNIA


Home > North America > United States > California
Elevation: 160 feet     Latitude: 39 45N     Longitude: 122 00W

WEATHER
 
SELECT A DAY
Number of Records: 142,087;   Date Range: 1/1/95 - 9/13/14
 
SHARE

PRINT THIS DATA

[ ← Previous Day ]
WEATHER ALMANAC - JANUARY 31, 2013
[ Next Day → ]
[ °C ]   °F
Weather ElementAverageHighLow
Temperature45.1 °F60.8 °F (2:59 pm)35.6 °F (3:55 am)
Dewpoint38 °F42.8 °F (5:58 pm) (7:00 pm)
Humidity79.4 %100 % (3:55 am)48 % (2:59 pm)
Barometer30.27 in30.33 in (8:48 am)30.22 in (3:55 pm)
Wind Speed2.3 mph8.1 mph (9:55 pm)
Weather ElementAverage
Visibility20.6 mi
Wind DirectionENE (51.2 °)

Weather ElementTotal
Precipitation---
Heating Degree Days16.8 (Base 65)
Averaged from 43 records on January 31, 2013
WEATHER CONDITIONS BREAKOUT
WIND DIRECTION BREAKOUT
WEATHER BY HOUR - JANUARY 31, 2013
[ °C ]   °F
Local TimeTemperatureDewpointHumidityBarometerVisibilityWind DirectionWind SpeedGust SpeedPrecipitationEventsConditions
12:35 AM46.4 °F39.2 °F76 %30.31 in10.0 miCalmClear
12:55 AM41.0 °F37.4 °F87 %30.31 in10.0 miCalmClear
1:15 AM41.0 °F37.4 °F87 %30.31 in10.0 miCalmClear
1:35 AM39.2 °F37.4 °F93 %30.31 in10.0 miCalmClear
1:55 AM42.8 °F37.4 °F81 %30.31 in10.0 miCalmClear
2:15 AM41.0 °F37.4 °F87 %30.31 in10.0 miCalmClear
2:35 AM41.0 °F37.4 °F87 %30.31 in10.0 miCalmClear
2:55 AM41.0 °F37.4 °F87 %30.30 in10.0 miCalmClear
3:15 AM41.0 °F37.4 °F87 %30.30 in10.0 miCalmClear
3:35 AM37.4 °F35.6 °F93 %30.29 in10.0 miCalmClear
3:55 AM35.6 °F35.6 °F100 %30.28 in10.0 miNNW (340°)4.6 mphClear
4:15 AM37.4 °F37.4 °F100 %30.28 in10.0 miNorth (350°)6.9 mphClear
4:55 AM41.0 °F37.4 °F87 %30.28 in10.0 miCalmClear
5:15 AM37.4 °F33.8 °F87 %30.28 in10.0 miSSW (200°)3.5 mphClear
5:35 AM35.6 °F33.8 °F93 %30.29 in10.0 miCalmClear
5:55 AM37.4 °F35.6 °F93 %30.29 in10.0 miCalmClear
6:15 AM37.4 °F35.6 °F93 %30.29 in10.0 miCalmClear
6:35 AM37.4 °F35.6 °F93 %30.29 in10.0 miCalmClear
6:55 AM37.4 °F35.6 °F93 %30.29 in10.0 miESE (120°)4.6 mphScattered Clouds
7:48 AM35.6 °F0.0 °F30.32 in80.0 miEast (100°)4.6 mphScattered Clouds
8:48 AM42.8 °F37.4 °F81 %30.33 in80.0 miESE (120°)4.6 mphScattered Clouds
9:57 AM50.0 °F41.0 °F71 %30.33 in80.0 miSouth (180°)5.8 mphScattered Clouds
11:48 AM55.4 °F41.0 °F58 %30.30 in80.0 miCalmPartly Cloudy
12:58 PM57.2 °F41.0 °F55 %30.27 in80.0 miCalmPartly Cloudy
1:47 PM59.0 °F41.0 °F51 %30.25 in40.0 miCalmPartly Cloudy
2:59 PM60.8 °F41.0 °F48 %30.23 in40.0 miCalmPartly Cloudy
3:55 PM60.8 °F41.0 °F48 %30.22 in40.0 miCalmPartly Cloudy
5:58 PM55.4 °F42.8 °F63 %30.22 in25.0 miCalmPartly Cloudy
6:50 PM50.0 °F41.0 °F71 %30.23 in10.0 miENE (60°)6.9 mphPartly Cloudy
6:55 PM50.0 °F41.0 °F71 %30.23 in10.0 miNE (50°)5.8 mphClear
7:15 PM50.0 °F41.0 °F71 %30.23 in10.0 miNE (50°)6.9 mphClear
7:35 PM50.0 °F41.0 °F71 %30.23 in10.0 miNE (40°)6.9 mphClear
7:55 PM50.0 °F41.0 °F71 %30.23 in10.0 miNE (50°)6.9 mphClear
8:15 PM50.0 °F41.0 °F71 %30.23 in10.0 miCalmClear
8:35 PM48.2 °F41.0 °F76 %30.24 in10.0 miNE (50°)5.8 mphClear
8:55 PM48.2 °F41.0 °F76 %30.24 in10.0 miCalmClear
9:15 PM48.2 °F41.0 °F76 %30.24 in10.0 miNE (50°)6.9 mphClear
9:35 PM48.2 °F41.0 °F76 %30.24 in10.0 miNE (50°)6.9 mphClear
9:55 PM48.2 °F41.0 °F76 %30.24 in10.0 miNE (40°)8.1 mphClear
10:15 PM48.2 °F41.0 °F76 %30.24 in10.0 miCalmClear
10:55 PM46.4 °F41.0 °F81 %30.24 in10.0 miCalmClear
11:15 PM41.0 °F39.2 °F93 %30.23 in10.0 miNorth (350°)3.5 mphClear
11:35 PM39.2 °F39.2 °F100 %30.23 in10.0 miCalmClear
Hourly data recorded from KCIC, located miles away from Hamilton City, California







STORIES FROM OUR PARTNERS